Location: Unspecified
(44.0704°N, 88.6889°W)
Time: 16:51:16
(UTC+02:00)

Altair - Pass Details

Date: 23 June 2019
Orbit: 1501 x 1683 km, 47.2° (Epoch: 15 July)

Event Time Altitude Azimuth Distance (km) Brightness Sun altitude
Rises 06:27:18 0° 274° (W) 4,762 10.4 -19.4°
Reaches altitude 10° 06:30:22 10° 277° (W) 3,801 9.9 -19.6°
Maximum altitude 06:40:07 74° 2° (N) 1,691 7.8 -20.2°
Drops below altitude 10° 06:50:14 10° 88° (E) 3,927 9.5 -20.8°
Sets 06:53:26 0° 91° (E) 4,926 10.0 -21.0°
